Terminal Aerodrome Forecast
Issued by NWS Wichita, KS

Home | Current Version | Previous Version | Graphics & Text | Print | Product List | Glossary On
Versions: 1 2 3 4 5 6 7 8 9 10 11 12 13 14 15 16 17 18 19 20 21
000
FTUS43 KICT 011732
TAFICT
TAF
KICT 011732Z 0118/0218 23014G20KT P6SM SCT100 BKN250
     FM012200 27009KT P6SM VCTS BKN090CB
     FM020100 36009KT P6SM SCT100
     FM021200 02010KT P6SM SCT025 BKN100=

USA.gov is the U.S. government's official web portal to all federal, state and local government web resources and services.